• In India
  • List of Countries
  • For 7 days
  • Water Temperature
  • Satellite Maps
  • Weather Map
  • Weather Widgets
  • user-avatar
    Login

    Hourly Weather Mikulin

    Today, 23 September, Sunday

    Time Temperature Precipitation Wind Pressure Humidity
    00:00 +9°C° 0 mm 3 mps 746 mmHg 86%
    01:00 +9°C° 0 mm 3 mps 746 mmHg 85%
    02:00 +8°C° 0 mm 2 mps 746 mmHg 89%
    03:00 +8°C° 0 mm 2 mps 746 mmHg 88%
    04:00 +9°C° 0 mm 2 mps 746 mmHg 86%
    05:00 +9°C° 0 mm 2 mps 745 mmHg 85%
    06:00 +10°C° 0 mm 3 mps 745 mmHg 82%
    07:00 +10°C° 0 mm 3 mps 745 mmHg 80%
    08:00 +11°C° 0 mm 4 mps 745 mmHg 76%
    09:00 +13°C° 0 mm 4 mps 745 mmHg 69%
    10:00 +14°C° 0 mm 5 mps 745 mmHg 62%
    11:00 +16°C° 0 mm 5 mps 745 mmHg 55%
    12:00 +17°C° 0 mm 5 mps 744 mmHg 52%
    13:00 +17°C° 0 mm 6 mps 744 mmHg 49%
    14:00 +17°C° 0 mm 6 mps 744 mmHg 48%
    15:00 +17°C° 0 mm 5 mps 744 mmHg 51%
    16:00 +17°C° 0 mm 4 mps 743 mmHg 55%
    17:00 +17°C° 0 mm 3 mps 742 mmHg 58%
    18:00 +15°C° 0 mm 4 mps 742 mmHg 60%
    19:00 +14°C° 0 mm 4 mps 741 mmHg 63%
    20:00 +13°C° 0 mm 4 mps 740 mmHg 65%
    21:00 +13°C° 0 mm 6 mps 739 mmHg 63%
    22:00 +14°C° 0 mm 7 mps 737 mmHg 60%
    23:00 +13°C° 0 mm 8 mps 736 mmHg 58%

    Tomorrow, 24 September, Monday

    Time Temperature Precipitation Wind Pressure Humidity
    00:00 +13°C° 0.3 mm 8 mps 735 mmHg 63%
    01:00 +14°C° 0.3 mm 7 mps 734 mmHg 69%
    02:00 +15°C° 0.3 mm 7 mps 732 mmHg 74%
    03:00 +15°C° 2.2 mm 8 mps 732 mmHg 78%
    04:00 +15°C° 2.2 mm 9 mps 732 mmHg 81%
    05:00 +14°C° 2.2 mm 10 mps 732 mmHg 85%
    06:00 +12°C° 0.3 mm 10 mps 734 mmHg 84%
    07:00 +11°C° 0.3 mm 10 mps 735 mmHg 83%
    08:00 +8°C° 0.3 mm 10 mps 737 mmHg 82%
    09:00 +8°C° 0 mm 9 mps 738 mmHg 79%
    10:00 +8°C° 0 mm 9 mps 739 mmHg 77%
    11:00 +10°C° 0 mm 8 mps 741 mmHg 74%
    12:00 +10°C° 0.1 mm 9 mps 741 mmHg 71%
    13:00 +11°C° 0.1 mm 10 mps 742 mmHg 68%
    14:00 +11°C° 0.1 mm 10 mps 742 mmHg 65%
    15:00 +11°C° 0.1 mm 10 mps 742 mmHg 65%
    16:00 +10°C° 0.1 mm 9 mps 743 mmHg 64%
    17:00 +10°C° 0.1 mm 9 mps 743 mmHg 64%
    18:00 +9°C° 0 mm 8 mps 743 mmHg 66%
    19:00 +8°C° 0 mm 7 mps 744 mmHg 68%
    20:00 +7°C° 0 mm 6 mps 744 mmHg 71%
    21:00 +7°C° 0.1 mm 6 mps 745 mmHg 71%
    22:00 +7°C° 0.1 mm 6 mps 745 mmHg 72%
    23:00 +6°C° 0.1 mm 7 mps 745 mmHg 73%

    Day after tomorrow, 25 September, Tuesday

    Time Temperature Precipitation Wind Pressure Humidity
    00:00 +6°C° 0.3 mm 7 mps 746 mmHg 76%
    01:00 +6°C° 0.3 mm 7 mps 746 mmHg 80%
    02:00 +6°C° 0.3 mm 7 mps 746 mmHg 84%
    03:00 +5°C° 0 mm 6 mps 747 mmHg 84%
    04:00 +4°C° 0 mm 6 mps 748 mmHg 85%
    05:00 +4°C° 0 mm 6 mps 749 mmHg 85%
    06:00 +4°C° 0 mm 6 mps 749 mmHg 83%
    07:00 +4°C° 0 mm 6 mps 750 mmHg 81%
    08:00 +5°C° 0 mm 6 mps 751 mmHg 79%
    09:00 +6°C° 0.1 mm 7 mps 752 mmHg 72%
    10:00 +8°C° 0.1 mm 7 mps 752 mmHg 65%
    11:00 +9°C° 0.1 mm 8 mps 752 mmHg 58%
    12:00 +9°C° 0.3 mm 8 mps 753 mmHg 57%
    13:00 +10°C° 0.3 mm 8 mps 753 mmHg 56%
    14:00 +10°C° 0.3 mm 8 mps 753 mmHg 55%
    15:00 +9°C° 0.2 mm 7 mps 753 mmHg 57%
    16:00 +9°C° 0.2 mm 6 mps 754 mmHg 59%
    17:00 +9°C° 0.2 mm 6 mps 754 mmHg 61%
    18:00 +8°C° 0 mm 5 mps 755 mmHg 64%
    19:00 +7°C° 0 mm 4 mps 755 mmHg 67%
    20:00 +6°C° 0 mm 4 mps 756 mmHg 70%
    21:00 +5°C° 0 mm 4 mps 756 mmHg 71%
    22:00 +5°C° 0 mm 3 mps 756 mmHg 72%
    23:00 +4°C° 0 mm 3 mps 757 mmHg 74%

    26 September, Wednesday

    Time Temperature Precipitation Wind Pressure Humidity
    00:00 +4°C° 0 mm 3 mps 757 mmHg 76%
    01:00 +3°C° 0 mm 3 mps 758 mmHg 78%
    02:00 +3°C° 0 mm 3 mps 758 mmHg 80%
    03:00 +2°C° 0 mm 3 mps 758 mmHg 82%
    04:00 +3°C° 0 mm 2 mps 758 mmHg 83%
    05:00 +3°C° 0 mm 2 mps 759 mmHg 84%
    06:00 +4°C° 0 mm 2 mps 759 mmHg 82%
    07:00 +4°C° 0 mm 2 mps 759 mmHg 79%
    08:00 +5°C° 0 mm 2 mps 759 mmHg 76%
    09:00 +7°C° 0 mm 2 mps 759 mmHg 68%
    10:00 +8°C° 0 mm 2 mps 759 mmHg 61%
    11:00 +10°C° 0 mm 3 mps 759 mmHg 53%
    12:00 +11°C° 0 mm 3 mps 758 mmHg 50%
    13:00 +12°C° 0 mm 3 mps 757 mmHg 47%
    14:00 +12°C° 0 mm 4 mps 757 mmHg 45%
    15:00 +12°C° 0 mm 4 mps 756 mmHg 48%
    16:00 +12°C° 0 mm 3 mps 756 mmHg 52%
    17:00 +12°C° 0 mm 3 mps 755 mmHg 55%
    18:00 +11°C° 0 mm 3 mps 755 mmHg 58%
    19:00 +10°C° 0 mm 3 mps 754 mmHg 60%
    20:00 +9°C° 0 mm 3 mps 754 mmHg 62%
    21:00 +8°C° 0 mm 4 mps 754 mmHg 61%
    22:00 +8°C° 0 mm 4 mps 754 mmHg 59%
    23:00 +8°C° 0 mm 5 mps 753 mmHg 58%

    27 September, Thursday

    Time Temperature Precipitation Wind Pressure Humidity
    00:00 +9°C° 0 mm 5 mps 753 mmHg 58%
    01:00 +9°C° 0 mm 5 mps 753 mmHg 58%
    02:00 +9°C° 0 mm 5 mps 752 mmHg 58%
    03:00 +9°C° 0 mm 5 mps 752 mmHg 57%
    04:00 +9°C° 0 mm 6 mps 751 mmHg 56%
    05:00 +9°C° 0 mm 6 mps 751 mmHg 54%
    06:00 +10°C° 0 mm 6 mps 751 mmHg 54%
    07:00 +10°C° 0 mm 6 mps 751 mmHg 54%
    08:00 +10°C° 0 mm 7 mps 750 mmHg 54%
    09:00 +11°C° 0 mm 7 mps 751 mmHg 53%
    10:00 +12°C° 0 mm 7 mps 751 mmHg 52%
    11:00 +14°C° 0 mm 7 mps 751 mmHg 52%
    12:00 +15°C° 0 mm 7 mps 750 mmHg 52%
    13:00 +17°C° 0 mm 7 mps 750 mmHg 52%
    14:00 +18°C° 0 mm 7 mps 750 mmHg 53%
    15:00 +19°C° 0 mm 6 mps 749 mmHg 56%
    16:00 +19°C° 0 mm 5 mps 749 mmHg 60%
    17:00 +18°C° 0 mm 4 mps 749 mmHg 63%
    18:00 +17°C° 0 mm 4 mps 749 mmHg 67%
    19:00 +15°C° 0 mm 4 mps 749 mmHg 71%
    20:00 +13°C° 0 mm 4 mps 749 mmHg 75%
    21:00 +13°C° 0 mm 4 mps 749 mmHg 75%
    22:00 +12°C° 0 mm 4 mps 748 mmHg 74%
    23:00 +12°C° 0 mm 4 mps 748 mmHg 73%

    28 September, Friday

    Time Temperature Precipitation Wind Pressure Humidity
    00:00 +12°C° 0 mm 4 mps 748 mmHg 70%
    01:00 +11°C° 0 mm 4 mps 748 mmHg 67%
    02:00 +11°C° 0 mm 4 mps 747 mmHg 65%
    03:00 +11°C° 0 mm 4 mps 747 mmHg 64%
    04:00 +11°C° 0 mm 4 mps 747 mmHg 63%
    05:00 +11°C° 0 mm 4 mps 746 mmHg 62%
    06:00 +11°C° 0 mm 4 mps 746 mmHg 63%
    07:00 +12°C° 0 mm 5 mps 746 mmHg 63%
    08:00 +12°C° 0 mm 5 mps 746 mmHg 63%
    09:00 +14°C° 0 mm 5 mps 746 mmHg 62%
    10:00 +15°C° 0 mm 5 mps 746 mmHg 61%
    11:00 +17°C° 0 mm 5 mps 746 mmHg 59%
    12:00 +17°C° 0 mm 4 mps 746 mmHg 63%
    13:00 +17°C° 0 mm 4 mps 746 mmHg 66%
    14:00 +17°C° 0 mm 3 mps 746 mmHg 70%
    15:00 +16°C° 0 mm 3 mps 746 mmHg 73%
    16:00 +16°C° 0 mm 3 mps 746 mmHg 76%
    17:00 +16°C° 0 mm 2 mps 747 mmHg 78%
    18:00 +15°C° 0 mm 2 mps 747 mmHg 80%
    19:00 +14°C° 0 mm 2 mps 747 mmHg 82%
    20:00 +13°C° 0 mm 2 mps 748 mmHg 84%
    21:00 +13°C° 0 mm 2 mps 748 mmHg 82%
    22:00 +13°C° 0 mm 2 mps 748 mmHg 80%
    23:00 +13°C° 0 mm 2 mps 749 mmHg 78%
    Show more